Weather in Zhmerynka

Ukraine / Vinnytsia Region     49°02′32″N   28°05′57″E
temp.,
°C
wind,
m/s
gust,
m/s
humid.,
%
clouds,
%
prec.,
mm/h
press.,
hPa
HPBL,
m
25 july, sun
sun2500:00+19ssw016090 0.0 101811
03:00+19se005787 0.0 101811
06:00+18sse116165 0.0 101811
09:00+22sse22552 0.0 1019303
12:00+25sse324225 0.0 10192140
15:00+23sw235991 0.0 1019195
18:00+25ese334822 0.0 10181380
21:00+21ese226225 0.0 101930
26 july, mon
mon2600:00+18ese366399 0.0 102093
03:00+17se37646 0.0 1019113
06:00+18ese486275 0.0 1019156
09:00+20se496871 0.0 1020283
12:00+26sse575059 0.0 10201052
15:00+28sse563919 0.0 10182387
18:00+28sse454877 0.0 10181437
21:00+21ese496957 0.0 1018138
27 july, tue
tue2700:00+19se411685 0.0 1019199
03:00+18se49735 0.0 1019137
06:00+18sse49704 0.0 1018134
09:00+23sse6125815 0.0 1018492
12:00+27s794990 0.4 10181010
15:00+28s564879 0.6 10171072
18:00+25sse486294 0.0 1016267
21:00+24s496299 0.0 1016176
28 july, wed
wed2800:00+21sw497638 0.1 1016139
03:00+20ssw378188 0.7 1015114
06:00+18ssw358497 0.0 101583
09:00+23w347113 0.0 1015327
12:00+28w34570 0.0 1014865
15:00+31w46467 0.0 10131857
18:00+30w23460 0.0 10131423
21:00+25ese00620 0.0 101211
29 july, thu
thu2900:00+22s337450 0.4 101232
03:00+20nne018417 1.3 101214
06:00+18sse33841 0.0 101130
09:00+23nw46770 0.0 1011401
12:00+25nw67671 0.0 1012900
15:00+26nw68601 0.0 10121163
18:00+25nw68610 0.0 10121414
21:00+20nw48840 0.0 1013183